Plymouth, MA

5:09 AM EDT on June 27, 2017 (GMT -0400)
Plymouth Municipal

Weather History for KPYM - August, 2013

Change the Weather History Date:

Sunday, August 25, 2013

  Actual Average Record
Temperature  
Mean Temperature 65 °F -  
Max Temperature 82 °F 77 °F 94 °F (1948)
Min Temperature 48 °F 56 °F 44 °F (1971)
Growing Degree Days 15 (Base 50)    
Moisture  
Dew Point 51 °F    
Average Humidity 60    
Maximum Humidity 90    
Minimum Humidity 33    
Precipitation  
Precipitation 0.00 in - - ()
Sea Level Pressure  
Sea Level Pressure 30.30 in    
Wind  
Wind Speed 3 mph (SW)    
Max Wind Speed 13 mph    
Max Gust Speed 18 mph    
Visibility 10 miles    
Events      
Averages and records for this station are not official NWS values.
T = Trace of Precipitation, MM = Missing Value Source: NWS Daily Summary

Daily Weather History Graph

Daily Weather History Graph

Search for Another Location

Airport or City:

Trip Planner

Search our weather history database for the weather conditions in past years. The results will help you decide how hot, cold, wet, or windy it might be!

Date:

Astronomy

Aug. 25, 2013 Rise Set
Actual Time 6:01 AM EDT 7:27 PM EDT
Civil Twilight 5:32 AM EDT 7:56 PM EDT
Nautical Twilight 4:57 AM EDT 8:31 PM EDT
Astronomical Twilight 4:20 AM EDT 9:08 PM EDT
Moon 9:50 PM EDT (8/25) 11:06 AM EDT (8/25)
Length of Visible Light 14h 24m
Length of Day
13h 25m
Waning Gibbous, 76% of the Moon is Illuminated
Aug 25
Waning Gibbous
Aug 28
Last Quarter
Sep 5
New
Sep 12
First Quarter
Sep 19
Full

Hourly Weather History & Observations

Time (EDT) Temp. Heat Index Dew Point Humidity Pressure Visibility Wind Dir Wind Speed Gust Speed Precip Events Conditions
12:52 AM 50.0 °F - 46.0 °F 86% 30.35 in 10.0 mi Calm Calm - N/A   Clear
1:52 AM 48.9 °F - 45.0 °F 86% 30.33 in 10.0 mi Calm Calm - N/A   Clear
2:52 AM 50.0 °F - 46.0 °F 86% 30.32 in 10.0 mi Calm Calm - N/A   Clear
3:52 AM 48.9 °F - 46.0 °F 90% 30.31 in 10.0 mi Calm Calm - N/A   Clear
4:52 AM 50.0 °F - 46.0 °F 86% 30.32 in 10.0 mi Calm Calm - N/A   Clear
5:52 AM 48.9 °F - 45.0 °F 86% 30.34 in 10.0 mi Calm Calm - N/A   Clear
6:52 AM 55.0 °F - 51.1 °F 86% 30.36 in 10.0 mi WNW 4.6 mph - N/A   Clear
7:52 AM 63.0 °F - 54.0 °F 72% 30.37 in 10.0 mi Calm Calm - N/A   Clear
8:52 AM 71.1 °F - 52.0 °F 51% 30.37 in 10.0 mi NNE 3.5 mph - N/A   Clear
9:52 AM 73.9 °F - 52.0 °F 46% 30.36 in 10.0 mi ENE 4.6 mph - N/A   Clear
10:52 AM 77.0 °F - 51.1 °F 40% 30.35 in 10.0 mi Variable 5.8 mph - N/A   Clear
11:52 AM 78.1 °F - 51.1 °F 39% 30.34 in 10.0 mi ENE 6.9 mph - N/A   Clear
12:52 PM 80.1 °F - 50.0 °F 35% 30.31 in 10.0 mi Variable 4.6 mph - N/A   Clear
1:52 PM 81.0 °F - 48.9 °F 33% 30.30 in 10.0 mi Variable 3.5 mph - N/A   Clear
2:52 PM 82.0 °F - 50.0 °F 33% 30.28 in 10.0 mi Variable 4.6 mph - N/A   Clear
3:52 PM 81.0 °F 80.4 °F 53.1 °F 38% 30.28 in 10.0 mi SSW 5.8 mph - N/A   Clear
4:52 PM 80.1 °F 80.0 °F 54.0 °F 40% 30.26 in 10.0 mi SW 12.7 mph 18.4 mph N/A   Clear
5:52 PM 78.1 °F - 52.0 °F 40% 30.25 in 10.0 mi SW 11.5 mph - N/A   Clear
6:52 PM 73.0 °F - 51.1 °F 46% 30.24 in 10.0 mi SW 9.2 mph - N/A   Clear
7:52 PM 69.1 °F - 53.1 °F 57% 30.22 in 10.0 mi SW 8.1 mph - N/A   Clear
8:52 PM 66.9 °F - 53.1 °F 61% 30.24 in 10.0 mi SSW 5.8 mph - N/A   Clear
9:52 PM 66.0 °F - 53.1 °F 63% 30.24 in 10.0 mi SSW 5.8 mph - N/A   Clear
10:52 PM 64.9 °F - 54.0 °F 68% 30.24 in 10.0 mi SW 5.8 mph - N/A   Clear
11:52 PM 64.9 °F - 55.0 °F 70% 30.22 in 10.0 mi SW 5.8 mph - N/A   Clear